星链-6133 (STARLINK-6133 )

导读

STARLINK-6133是美国太空探索技术公司SpaceX星链星座的一员,于2023年6月23日发射升空。星链计划旨在搭建全球卫星互联网,为偏远地区、灾难现场等场景提供网络服务。作为低轨卫星,它跟随星座组网运行,助力星链实现全球覆盖,不过其大规模部署也引发了天文观测、空间碎片等领域的争议。

Basic Information
目录编号:
57134
目录名称:
STARLINK-6133
国际标识:
2023-090AK
轨道中心:
EARTH
卫星名称:
星链-6133
卫星全名:
星链-6133 (STARLINK-6133 )
卫星状态:
在轨 (已飞行1169 天)
发射日期:
2023-06-23 UTC
国别 :
美国 (US)
星等 :
--
Orbit Information
数据来源 国际轨道数据
星历时间: 2026-09-04T01:07:45+0800
14小时前
查看轨道信息
半长轴: 6861.211km
偏心率: 0.0001602
轨道倾角: 43.005°
近地点辐角 281.106°
升交点赤经 337.638°
平近点角 78.961°
近地点: 481.974km
远地点: 484.174km
周期: 94.267分钟
每日圈数: 15.27572
Detailed Information
固有亮度:
5
最大亮度:
2.4
卫星平台:
Starlink v1.5
覆盖范围:
全球
运营商:
太空探索技术公司
运营商所在国:
美国
制造商(研发单位):
太空探索技术公司
制造商所在国:
美国
使用方式:
暂无
Satellite Introduction
星链(Starlink)计划是由太空探索技术公司(SpaceX)提出的一个巨型低轨卫星互联网星座项目,计划在2019年至2024年间在太空搭建由约1.2万颗卫星组成的“星链”网络,其中1584颗将部署在地球上空550千米处的近地轨道,并从2020年开始工作。该卫星仍在工作。
2D Orbit Map
3D Orbit Map
Orbit Altitude Analysis Chart
Orbit Inclination Analysis Chart
Orbit Comprehensive Analysis Chart
View Comprehensive Chart
Conjunction Data List
Event ID Objects TCA Miss Dist (km) Collision Risk Probability Collision Risk Index (CRI) Action
CDM_260903-101604-102605-713425
2026-09-03T
10:16:41+0000
1.171 km
极远距离
1.050544E-5 中风险 0.55
CDM_260904-110105-321305-713421
2026-09-04T
11:01:11+0000
2.486 km
极远距离
1.209432E-6 低风险 0.37
CDM_260903-002105-713406-707022
DEAR-5 (67070)
2026-09-03T
00:21:18+0000
2.940 km
极远距离
7.027581E-7 极低风险 0.32